Regional Weather Roundup
Issued by NWS Boston, MA

Current Version | Previous Version | Text Only | Print | Product List | Glossary Off
Versions: 1 2 3 4 5 6 7 8 9 10 11 12 13 14 15 16 17 18 19 20 21 22 23 24 25 26 27 28 29 30 31 32 33 34 35 36 37 38 39 40 41 42 43 44 45 46 47 48 49 50

936
ASUS41 KBOX 231910
RWRBOX

REGIONAL WEATHER ROUNDUP
NATIONAL WEATHER SERVICE TAUNTON MA
300 PM EDT THU MAR 23 2017

NOTE:  "FAIR" INDICATES FEW OR NO CLOUDS BELOW 12,000 FEET WITH NO
SIGNIFICANT WEATHER AND/OR OBSTRUCTIONS TO VISIBILITY.

MAZALL-232000-
EASTERN MASSACHUSETTS

CITY           SKY/WX    TMP DP  RH WIND       PRES   REMARKS
BOSTON         SUNNY     36   1  22 W16       30.42F WCI  26
BEVERLY        SUNNY     36   1  22 NW17G25   30.39F WCI  26
LAWRENCE       SUNNY     34   3  27 NW15G26   30.41F WCI  24
BEDFORD        SUNNY     37   0  21 W17G23    30.40F WCI  27
BLUE HILL      NOT AVBL
NORWOOD        SUNNY     38  -1  19 W20G26    30.42F WCI  28
MARSHFIELD     SUNNY     37   0  20 W13       30.41S WCI  29
PLYMOUTH       SUNNY     36  -2  20 NW20G28   30.41F WCI  25
TAUNTON        SUNNY     38  -1  19 NW12G21   30.42F WCI  30
NEW BEDFORD    SUNNY     38   0  20 W20       30.42F WCI  28
$$

MAZALL-232000-
CAPE COD AND THE ISLANDS

CITY           SKY/WX    TMP DP  RH WIND       PRES   REMARKS
FALMOUTH         N/A     36  -6  17 MISG      30.42F
HYANNIS        SUNNY     35   3  26 N10       30.40S WCI  27
CHATHAM        SUNNY     34   5  29 NW12G20   30.43S WCI  25
PROVINCETOWN   SUNNY     34   7  32 NW16G23   30.42F WCI  24
NANTUCKET      SUNNY     34   0  23 W20G26    30.43S WCI  23
MARTHAS VNYRD  SUNNY     36  -1  21 W16G22    30.44S WCI  26
$$

MAZALL-232000-
CENTRAL AND WESTERN MASSACHUSETTS

CITY           SKY/WX    TMP DP  RH WIND       PRES   REMARKS
WORCESTER      SUNNY     32  -4  21 NW16G26   30.38F WCI  21
FITCHBURG      SUNNY     35   2  24 NW20G25   30.42F WCI  24
ORANGE         SUNNY     33   1  25 NW9G18    30.42F WCI  25
SPRINGFIELD    MOSUNNY   36  -1  21 NW13G22   30.44F WCI  28
WESTFIELD      SUNNY     35   3  26 W20G25    30.46S WCI  24
NORTH ADAMS    SUNNY     32   1  26 VRB7      30.46F WCI  26
PITTSFIELD     SUNNY     30  -1  26 W9G20     30.42F WCI  22
$$

RIZALL-232000-
RHODE ISLAND

CITY           SKY/WX    TMP DP  RH WIND       PRES   REMARKS
PROVIDENCE     MOSUNNY   38  -3  17 W17G23    30.44F WCI  28
NEWPORT        SUNNY     36   1  22 NW14      30.44F WCI  27
BLOCK ISLAND   SUNNY     36  11  35 W15G21    30.47F WCI  27
SMITHFIELD     SUNNY     36   1  22 NW10G24   30.42F WCI  28
WESTERLY       SUNNY     38  -4  16 NW13G22   30.47F WCI  30
$$

CTZALL-232000-
CONNECTICUT

CITY           SKY/WX    TMP DP  RH WIND       PRES   REMARKS
BRADLEY INTL   SUNNY     37   0  21 NW13G21   30.47F WCI  29
HARTFORD       SUNNY     36   1  22 NW12G22   30.49F WCI  28
BRIDGEPORT     SUNNY     42  -1  16 NW17      30.51F
DANBURY        SUNNY     35  -2  20 W13G20    30.51F WCI  26
GROTON         SUNNY     39  -3  17 NW14G22   30.46F WCI  31
NEW HAVEN      SUNNY     38   0  20 NW14      30.51F WCI  30
CHESTER        FAIR      36  -6  17 NW10G18   30.46F WCI  28
MERIDEN        SUNNY     38  -1  19 NW15G28   30.49F WCI  29
WILLIMANTIC    SUNNY     38  -1  19 W9G20     30.46F WCI  31
OXFORD         SUNNY     34   0  23 NW9G18    30.48F WCI  26
$$

MEZ002-015-021-024-NHZ003-005-008-011-012-014-VTZ005-008-232000-
NORTHERN NEW ENGLAND

CITY           SKY/WX    TMP DP  RH WIND       PRES   REMARKS
PORTLAND ME    SUNNY     33   1  25 NW16G25   30.36F WCI  23
BANGOR ME      SUNNY     27   1  32 NW20G28   30.28F WCI  13
CONCORD NH     SUNNY     34   3  27 W23G32    30.39S WCI  22
MANCHESTER NH  NOT AVBL
NASHUA NH      NOT AVBL
PORTSMOUTH NH  SUNNY     34   1  24 W20G30    30.37F WCI  22
JAFFREY NH     NOT AVBL
KEENE NH       NOT AVBL
BURLINGTON VT  SUNNY     32   5  32 N10G22    30.46F WCI  24
MT. WASHINGTON MOSUNNY   -2  -8  78 W64G74      N/A  WCI -37
$$

NYZ052-076-232000-
EASTERN NEW YORK

CITY           SKY/WX    TMP DP  RH WIND       PRES   REMARKS
ALBANY         MOSUNNY   35   4  27 W18       30.51F WCI  24
NEW YORK CITY  MOSUNNY   41   3  20 NW15      30.53F
$$

ANZALL-232000-
MARINE OBSERVATIONS

STATION/POSITION TIME  TEMP    WIND        PRES    VSBY  WAVE
                       AIR SEA DIR/SP/G                  HT/PER
                 (UTC) (F)     (DEG/KT/KT) (MB)    (MI)  (FT/S)
BOSTON BUOY      1750   31 40  290/ 16/ 21 1029.8          3/ 4
BUZZARDS BAY     1800   31     300/ 16/ 18 1032.1F
NANTUCKET SOUND  1850      38              1030.2F         2/ 4
MASS BAY-STELLWA 1804   31 39  300/ 17/ 23 1028.4F         4/ 3
ISLE OF SHOALS   1900   32     310/ 23/ 26 1028.2F
S OF BLOCK IS    1855      40                N/A           4/ 4
$$

......................KEY.........................
  SKY/WX - SKY CONDITION/PRESENT WEATHER
  TMP    - TEMPERATURE IN FAHRENHEIT
  DWPT   - DEWPOINT IN FAHRENHEIT
  RH     - RELATIVE HUMIDITY IN PERCENT
  WIND   - DIRECTION AND SPEED IN MPH
  PRES   - MEAN SEA LEVEL PRESSURE IN INCHES OF HG
  WCI    - WIND CHILL INDEX
  VSB    - VISIBILITY IN MILES
  HX     - HEAT INDEX
  TC     - TEMPERATURE IN CELSIUS
  VRB    - VARIABLE WIND DIRECTION
  N/A    - NOT AVAILABLE




USA.gov is the U.S. government's official web portal to all federal, state and local government web resources and services.